Location: Launois
(49.6535°N, 4.5395°E)
Time: 21:19:03
(UTC+00:00)

SL-8 R/B - Pass Details

Date: 23 May 2024
Orbit: 652 x 662 km, 48.4° (Epoch: 14 June)

Event Time Altitude Azimuth Distance (km) Brightness Sun altitude
Rises 00:57:34 0° 282° (WNW) 2,976 7.0 -17.6°
Reaches altitude 10° 00:59:58 10° 276° (W) 2,065 6.1 -17.4°
Maximum altitude 01:04:30 46° 204° (SSW) 882 3.9 -17.2°
Drops below altitude 10° 01:09:04 10° 131° (SE) 2,065 6.0 -16.9°
Sets 01:11:28 0° 126° (SE) 2,976 6.9 -16.7°
